• En España
  • Lista de países
  • Para 7 días
  • Temperatura del agua
  • Mapa Satelital
  • El tiempo en el mapa
  • Informadores
  • user-avatar
    Iniciar sesión

    Tiempo cada hora La Rioja

    Hoy, 17 Octubre, Miércoles

    Tiempo Temperatura Precipitaciones Viento Presión Humedad
    00:00 +27°C° 0 mm 2 mps 709 mmHg 22%
    01:00 +27°C° 0 mm 2 mps 709 mmHg 22%
    02:00 +26°C° 0 mm 3 mps 709 mmHg 23%
    03:00 +26°C° 0 mm 3 mps 709 mmHg 22%
    04:00 +25°C° 0 mm 2 mps 709 mmHg 22%
    05:00 +24°C° 0 mm 2 mps 709 mmHg 22%
    06:00 +26°C° 0 mm 2 mps 709 mmHg 22%
    07:00 +27°C° 0 mm 2 mps 710 mmHg 23%
    08:00 +29°C° 0 mm 2 mps 711 mmHg 24%
    09:00 +30°C° 0 mm 3 mps 711 mmHg 22%
    10:00 +33°C° 0 mm 3 mps 710 mmHg 21%
    11:00 +34°C° 0 mm 4 mps 710 mmHg 19%
    12:00 +35°C° 0 mm 4 mps 710 mmHg 19%
    13:00 +36°C° 0 mm 4 mps 709 mmHg 18%
    14:00 +37°C° 0 mm 5 mps 708 mmHg 18%
    15:00 +37°C° 0 mm 5 mps 708 mmHg 18%
    16:00 +37°C° 0 mm 5 mps 708 mmHg 18%
    17:00 +36°C° 0 mm 5 mps 707 mmHg 19%
    18:00 +35°C° 0 mm 4 mps 708 mmHg 23%
    19:00 +33°C° 0 mm 3 mps 709 mmHg 28%
    20:00 +31°C° 0 mm 2 mps 709 mmHg 32%
    21:00 +30°C° 0.2 mm 2 mps 710 mmHg 36%
    22:00 +29°C° 0.2 mm 2 mps 710 mmHg 40%
    23:00 +29°C° 0.2 mm 2 mps 710 mmHg 43%

    Mañana, 18 Octubre, Jueves

    Tiempo Temperatura Precipitaciones Viento Presión Humedad
    00:00 +28°C° 0.1 mm 2 mps 710 mmHg 45%
    01:00 +28°C° 0.1 mm 2 mps 710 mmHg 46%
    02:00 +27°C° 0.1 mm 2 mps 710 mmHg 48%
    03:00 +26°C° 0.2 mm 2 mps 710 mmHg 50%
    04:00 +26°C° 0.2 mm 2 mps 711 mmHg 52%
    05:00 +25°C° 0.2 mm 2 mps 711 mmHg 53%
    06:00 +26°C° 0.3 mm 4 mps 712 mmHg 48%
    07:00 +27°C° 0.3 mm 5 mps 712 mmHg 43%
    08:00 +28°C° 0.3 mm 6 mps 713 mmHg 38%
    09:00 +29°C° 0 mm 6 mps 714 mmHg 36%
    10:00 +30°C° 0 mm 6 mps 714 mmHg 34%
    11:00 +33°C° 0 mm 6 mps 714 mmHg 31%
    12:00 +33°C° 0 mm 6 mps 714 mmHg 30%
    13:00 +34°C° 0 mm 5 mps 713 mmHg 29%
    14:00 +35°C° 0 mm 5 mps 712 mmHg 28%
    15:00 +35°C° 0.2 mm 4 mps 712 mmHg 29%
    16:00 +35°C° 0.2 mm 4 mps 712 mmHg 29%
    17:00 +35°C° 0.2 mm 4 mps 712 mmHg 30%
    18:00 +33°C° 0.3 mm 3 mps 712 mmHg 32%
    19:00 +31°C° 0.3 mm 3 mps 713 mmHg 35%
    20:00 +30°C° 0.3 mm 2 mps 714 mmHg 37%
    21:00 +29°C° 0.2 mm 3 mps 715 mmHg 37%
    22:00 +28°C° 0.2 mm 3 mps 715 mmHg 36%
    23:00 +28°C° 0.2 mm 3 mps 716 mmHg 35%

    Pasado mañana, 19 Octubre, Viernes

    Tiempo Temperatura Precipitaciones Viento Presión Humedad
    00:00 +27°C° 0 mm 3 mps 716 mmHg 36%
    01:00 +26°C° 0 mm 3 mps 716 mmHg 37%
    02:00 +26°C° 0 mm 3 mps 716 mmHg 38%
    03:00 +25°C° 0 mm 3 mps 716 mmHg 41%
    04:00 +24°C° 0 mm 3 mps 716 mmHg 44%
    05:00 +24°C° 0 mm 3 mps 716 mmHg 47%
    06:00 +25°C° 0 mm 3 mps 716 mmHg 48%
    07:00 +26°C° 0 mm 3 mps 717 mmHg 49%
    08:00 +27°C° 0 mm 3 mps 717 mmHg 50%
    09:00 +28°C° 0 mm 3 mps 716 mmHg 49%
    10:00 +29°C° 0 mm 3 mps 716 mmHg 48%
    11:00 +30°C° 0 mm 3 mps 716 mmHg 47%
    12:00 +31°C° 0 mm 3 mps 715 mmHg 44%
    13:00 +33°C° 0 mm 4 mps 714 mmHg 41%
    14:00 +34°C° 0 mm 4 mps 713 mmHg 38%
    15:00 +34°C° 0 mm 5 mps 712 mmHg 38%
    16:00 +34°C° 0 mm 5 mps 712 mmHg 39%
    17:00 +34°C° 0 mm 6 mps 711 mmHg 39%
    18:00 +33°C° 0.6 mm 6 mps 712 mmHg 46%
    19:00 +30°C° 0.6 mm 5 mps 713 mmHg 54%
    20:00 +29°C° 0.6 mm 5 mps 714 mmHg 61%
    21:00 +28°C° 1 mm 5 mps 714 mmHg 66%
    22:00 +27°C° 1 mm 5 mps 714 mmHg 71%
    23:00 +27°C° 1 mm 4 mps 714 mmHg 75%

    20 Octubre, Sábado

    Tiempo Temperatura Precipitaciones Viento Presión Humedad
    00:00 +26°C° 0.8 mm 4 mps 714 mmHg 77%
    01:00 +26°C° 0.8 mm 3 mps 714 mmHg 79%
    02:00 +26°C° 0.8 mm 3 mps 713 mmHg 80%
    03:00 +25°C° 0.2 mm 3 mps 713 mmHg 81%
    04:00 +25°C° 0.2 mm 3 mps 713 mmHg 81%
    05:00 +25°C° 0.2 mm 3 mps 713 mmHg 82%
    06:00 +25°C° 0.1 mm 3 mps 713 mmHg 79%
    07:00 +26°C° 0.1 mm 3 mps 713 mmHg 76%
    08:00 +26°C° 0.1 mm 3 mps 713 mmHg 73%
    09:00 +28°C° 0 mm 3 mps 713 mmHg 67%
    10:00 +29°C° 0 mm 3 mps 713 mmHg 60%
    11:00 +30°C° 0 mm 3 mps 712 mmHg 54%
    12:00 +31°C° 0 mm 3 mps 711 mmHg 50%
    13:00 +33°C° 0 mm 4 mps 711 mmHg 46%
    14:00 +34°C° 0 mm 4 mps 710 mmHg 43%
    15:00 +34°C° 0.1 mm 4 mps 709 mmHg 43%
    16:00 +34°C° 0.1 mm 4 mps 709 mmHg 44%
    17:00 +34°C° 0.1 mm 5 mps 709 mmHg 44%
    18:00 +33°C° 0.6 mm 4 mps 709 mmHg 50%
    19:00 +32°C° 0.6 mm 4 mps 710 mmHg 55%
    20:00 +30°C° 0.6 mm 4 mps 711 mmHg 60%
    21:00 +29°C° 0.9 mm 4 mps 711 mmHg 64%
    22:00 +29°C° 0.9 mm 4 mps 712 mmHg 68%
    23:00 +28°C° 0.9 mm 4 mps 712 mmHg 72%

    21 Octubre, Domingo

    Tiempo Temperatura Precipitaciones Viento Presión Humedad
    00:00 +27°C° 0.5 mm 4 mps 712 mmHg 74%
    01:00 +27°C° 0.5 mm 4 mps 711 mmHg 76%
    02:00 +26°C° 0.5 mm 4 mps 711 mmHg 77%
    03:00 +26°C° 0.1 mm 4 mps 711 mmHg 77%
    04:00 +25°C° 0.1 mm 4 mps 711 mmHg 77%
    05:00 +25°C° 0.1 mm 3 mps 711 mmHg 77%
    06:00 +25°C° 0.1 mm 3 mps 712 mmHg 75%
    07:00 +26°C° 0.1 mm 3 mps 712 mmHg 73%
    08:00 +26°C° 0.1 mm 2 mps 713 mmHg 70%
    09:00 +27°C° 0 mm 3 mps 712 mmHg 65%
    10:00 +28°C° 0 mm 3 mps 712 mmHg 60%
    11:00 +29°C° 0 mm 3 mps 712 mmHg 56%
    12:00 +30°C° 0 mm 3 mps 711 mmHg 53%
    13:00 +32°C° 0 mm 4 mps 710 mmHg 50%
    14:00 +33°C° 0 mm 4 mps 709 mmHg 47%
    15:00 +33°C° 0.4 mm 4 mps 709 mmHg 47%
    16:00 +33°C° 0.4 mm 4 mps 709 mmHg 48%
    17:00 +33°C° 0.4 mm 4 mps 709 mmHg 48%
    18:00 +32°C° 1.4 mm 4 mps 709 mmHg 53%
    19:00 +30°C° 1.4 mm 4 mps 710 mmHg 59%
    20:00 +29°C° 1.4 mm 3 mps 711 mmHg 64%
    21:00 +29°C° 1.8 mm 3 mps 711 mmHg 67%
    22:00 +28°C° 1.8 mm 3 mps 711 mmHg 70%
    23:00 +27°C° 1.8 mm 2 mps 712 mmHg 73%

    22 Octubre, Lunes

    Tiempo Temperatura Precipitaciones Viento Presión Humedad
    00:00 +27°C° 0.7 mm 2 mps 711 mmHg 75%
    01:00 +27°C° 0.7 mm 3 mps 711 mmHg 77%
    02:00 +26°C° 0.7 mm 3 mps 711 mmHg 79%
    03:00 +26°C° 0.2 mm 3 mps 711 mmHg 79%
    04:00 +26°C° 0.2 mm 4 mps 711 mmHg 79%
    05:00 +25°C° 0.2 mm 4 mps 712 mmHg 79%
    06:00 +26°C° 0.1 mm 5 mps 712 mmHg 76%
    07:00 +26°C° 0.1 mm 5 mps 713 mmHg 73%
    08:00 +26°C° 0.1 mm 6 mps 713 mmHg 70%
    09:00 +27°C° 0.1 mm 6 mps 713 mmHg 67%
    10:00 +27°C° 0.1 mm 6 mps 713 mmHg 63%
    11:00 +28°C° 0.1 mm 6 mps 712 mmHg 59%
    12:00 +29°C° 0.1 mm 6 mps 712 mmHg 56%
    13:00 +29°C° 0.1 mm 5 mps 712 mmHg 53%
    14:00 +30°C° 0.1 mm 5 mps 711 mmHg 49%
    15:00 +30°C° 0.2 mm 5 mps 711 mmHg 50%
    16:00 +30°C° 0.2 mm 5 mps 711 mmHg 50%
    17:00 +29°C° 0.2 mm 5 mps 711 mmHg 51%
    18:00 +28°C° 0.2 mm 4 mps 712 mmHg 55%
    19:00 +28°C° 0.2 mm 4 mps 713 mmHg 59%
    20:00 +27°C° 0.2 mm 3 mps 714 mmHg 63%
    21:00 +26°C° 0.7 mm 3 mps 714 mmHg 64%
    22:00 +26°C° 0.7 mm 3 mps 715 mmHg 64%
    23:00 +25°C° 0.7 mm 4 mps 715 mmHg 65%
    Mostrar más